Flag for China Weather past 2 weeks in Tianjin, Tianjin Municipality, China

Now
84 °F

Clear.


Feels Like: 91 °F
Forecast: 77 / 94 °F
Wind: 6 mph from Southeast

Location: Tianjin / Zhangguizhu

Current Time: Aug 1, 2014 at 8:25:54 PM

Latest Report: Aug 1, 2014 at 8:00 PM


Visibility: 5 mi

Pressure: 29.68 "Hg

Humidity: 70%

Dew point: 73 °F

Location of TianjinLocation

Historic Weather in Tianjin — Graph

°F

Tianjin temperature yesterday

Maximum temperature yesterday: 90 °F (at 3:00 PM)
Minimum temperature yesterday: 73 °F (at 4:00 AM)
Average temperature yesterday: 80 °F

Past Weeks' High & Low Weather Summary

 TemperatureHumidityPressure
High99 °F (Jul 20, 3:00 PM)94% (Jul 31, 6:00 AM)29.86 "Hg (Jul 31, 6:00 AM)
Low70 °F (Jul 25, 3:00 AM)26% (Jul 26, 2:30 PM)29.53 "Hg (Jul 21, 3:00 AM)
Average84 °F61%29.70 "Hg
* Reported Jul 17 7:00 PM — Aug 1 7:30 PM, Tianjin, Weather by CustomWeather, © 2014

Note: Actual official high and low records may vary slightly from our data, if they occured in-between our weather recording intervals... More about our weather records

Advertising

Tianjin weather history for previous 24 hours

 ConditionsComfort  
Time TempWeatherWind HumidityBarometerVisibility
7:30 PM
Aug 1
84 °FClear.6 mph74%29.68 "Hg5 mi
7:00 PM86 °FClear.8 mph70%29.68 "Hg5 mi
6:30 PM86 °FSunny.8 mph62%29.68 "Hg10 mi
6:00 PM88 °FSunny.8 mph62%29.68 "Hg10 mi
5:30 PM88 °FSunny.8 mph55%29.68 "Hg10 mi
5:00 PM90 °FPassing clouds.10 mph49%29.65 "HgN/A
4:30 PM90 °FScattered clouds.10 mph52%29.68 "HgN/A
4:00 PM91 °FScattered clouds.8 mph52%29.68 "HgN/A
3:30 PM91 °FScattered clouds.10 mph52%29.68 "HgN/A
3:00 PM90 °FScattered clouds.10 mph59%29.68 "Hg4 mi
2:30 PM88 °FHaze.10 mph62%29.68 "Hg3 mi
2:00 PM90 °FHaze.10 mph59%29.71 "Hg3 mi
1:30 PM90 °FHaze.8 mph59%29.71 "Hg3 mi
1:00 PM88 °FHaze.10 mph59%29.71 "Hg2 mi
12:30 PM88 °FHaze.8 mph62%29.71 "Hg2 mi
12:00 PM88 °FHaze.6 mph62%29.74 "Hg2 mi
11:30 AM88 °FHaze.8 mph62%29.74 "Hg2 mi
11:00 AM86 °FHaze.8 mph66%29.74 "Hg1 mi
10:30 AM84 °FHaze.8 mph74%29.74 "Hg1 mi
10:00 AM82 °FFog.10 mph79%29.74 "Hg1 mi
9:30 AM81 °FFog.8 mph84%29.74 "Hg1 mi
9:00 AM82 °FFog.8 mph79%29.74 "Hg1 mi
8:30 AM81 °FFog.3 mph84%29.74 "Hg1 mi
8:00 AM81 °FFog.3 mph84%29.74 "Hg1 mi
7:30 AM81 °FFog.6 mph84%29.71 "Hg1 mi
7:00 AM79 °FFog.6 mph89%29.71 "Hg1 mi
6:30 AM79 °FFog.6 mph89%29.71 "Hg1 mi
6:00 AM77 °FFog.3 mph94%29.71 "Hg1 mi
5:30 AM77 °FFog.3 mph89%29.71 "Hg1 mi
5:00 AM77 °FFog.3 mph89%29.71 "Hg1 mi
4:30 AM77 °FFog.3 mph89%29.71 "Hg1 mi
4:00 AM77 °FFog.1 mph89%29.71 "Hg1 mi
3:30 AM77 °FFog.3 mph89%29.71 "Hg1 mi
3:00 AM77 °FFog.3 mph89%29.71 "Hg1 mi
2:30 AM77 °FFog.No wind89%29.71 "Hg1 mi
2:00 AM77 °FFog.3 mph89%29.71 "Hg1 mi
1:30 AM77 °FFog.3 mph89%29.71 "Hg1 mi
1:00 AM77 °FFog.3 mph89%29.71 "Hg1 mi
12:30 AM77 °FFog.3 mph89%29.74 "Hg1 mi
12:00 AM77 °FFog.3 mph89%29.74 "Hg1 mi
11:30 PM
Jul 31
77 °FFog.3 mph83%29.74 "Hg1 mi
11:00 PM77 °FFog.3 mph89%29.74 "Hg1 mi
10:30 PM77 °FFog.3 mph89%29.74 "Hg2 mi
10:00 PM79 °FFog.1 mph84%29.74 "Hg1 mi
9:30 PM79 °FFog.6 mph84%29.74 "Hg2 mi
9:00 PM79 °FFog.6 mph84%29.71 "Hg2 mi
8:30 PM79 °FFog.6 mph84%29.71 "Hg2 mi
8:00 PM81 °FHaze.8 mph79%29.68 "Hg2 mi
Weather by CustomWeather, © 2014

See weather overviewHow to use our weather pages